Weather History for Lee's Summit, MO

Change the Weather History Date:

Wednesday, May 8, 2013

  Actual Average (KMKC) Record (KMKC)
Temperature  
Mean Temperature 65 °F -  
Max Temperature 73 °F 72 °F 86 °F (2011)
Min Temperature 57 °F 52 °F 48 °F (1999)
Growing Degree Days 15 (Base 50)    
Moisture  
Dew Point 54 °F    
Average Humidity 67    
Maximum Humidity 78    
Minimum Humidity 51    
Precipitation  
Precipitation 0.12 in - - ()
Sea Level Pressure  
Sea Level Pressure 29.96 in    
Wind  
Wind Speed 6 mph (South)    
Max Wind Speed 16 mph    
Max Gust Speed 22 mph    
Visibility 10 miles    
Events Rain , Thunderstorm    
Averages and records for this station are not official NWS values.
T = Trace of Precipitation, MM = Missing Value Source: NWS Daily Summary

Daily Weather History Graph

Daily Weather History Graph

Search for Another Location

Airport:

Trip Planner

Search our weather history database for the weather conditions in past years. The results will help you decide how hot, cold, wet, or windy it might be!

Date:

Astronomy

May. 08, 2013 Rise Set
Actual Time 6:11 AM CDT 8:17 PM CDT
Civil Twilight 5:41 AM CDT 8:46 PM CDT
Nautical Twilight 5:05 AM CDT 9:22 PM CDT
Astronomical Twilight 4:26 AM CDT 10:02 PM CDT
Moon 5:19 AM CDT (5/8) 7:16 PM CDT (5/8)
Length of Visible Light 15h 04m
Length of Day
14h 05m
Waning Crescent, 2% of the Moon is Illuminated
May 8
Waning Crescent
May 9
New
May 17
First Quarter
May 24
Full
May 31
Last Quarter

Hourly Weather History & Observations

Time (CDT) Temp. Dew Point Humidity Pressure Visibility Wind Dir Wind Speed Gust Speed Precip Events Conditions
12:53 AM 61.0 °F 48.9 °F 64% 29.98 in 10.0 mi SSE 4.6 mph - N/A   Clear
1:53 AM 61.0 °F 48.9 °F 64% 29.97 in 10.0 mi SSE 4.6 mph - N/A   Clear
2:53 AM 61.0 °F 48.9 °F 64% 29.97 in 10.0 mi SSE 5.8 mph - N/A   Clear
3:53 AM 61.0 °F 48.9 °F 64% 29.97 in 10.0 mi Calm Calm - N/A   Overcast
4:53 AM 60.1 °F 48.9 °F 67% 29.97 in 10.0 mi South 3.5 mph - N/A   Mostly Cloudy
5:53 AM 57.9 °F 51.1 °F 78% 29.98 in 10.0 mi Calm Calm - N/A   Mostly Cloudy
6:53 AM 57.9 °F 51.1 °F 78% 30.00 in 10.0 mi SW 3.5 mph - N/A   Mostly Cloudy
7:53 AM 59.0 °F 52.0 °F 78% 30.01 in 10.0 mi Calm Calm - N/A   Overcast
8:53 AM 61.0 °F 54.0 °F 78% 30.01 in 10.0 mi Calm Calm - 0.00 in   Overcast
9:53 AM 64.0 °F 55.9 °F 75% 30.02 in 10.0 mi South 3.5 mph - N/A   Mostly Cloudy
10:53 AM 64.9 °F 54.0 °F 68% 30.01 in 10.0 mi South 10.4 mph - N/A   Mostly Cloudy
11:53 AM 68.0 °F 55.9 °F 65% 30.01 in 10.0 mi South 16.1 mph 21.9 mph N/A   Clear
12:53 PM 68.0 °F 55.9 °F 65% 29.99 in 10.0 mi South 11.5 mph 20.7 mph N/A   Scattered Clouds
1:53 PM 71.1 °F 55.9 °F 59% 29.98 in 10.0 mi South 10.4 mph - N/A   Clear
2:53 PM 70.0 °F 54.0 °F 57% 29.98 in 10.0 mi South 10.4 mph 18.4 mph N/A   Mostly Cloudy
3:53 PM 72.0 °F 57.0 °F 59% 29.95 in 10.0 mi South 13.8 mph 18.4 mph N/A   Clear
4:53 PM 72.0 °F 55.9 °F 57% 29.93 in 10.0 mi South 10.4 mph 19.6 mph N/A   Clear
5:53 PM 73.0 °F 54.0 °F 51% 29.92 in 10.0 mi South 13.8 mph 20.7 mph N/A   Clear
6:53 PM 72.0 °F 54.0 °F 53% 29.91 in 10.0 mi South 10.4 mph - N/A   Clear
7:53 PM 69.1 °F 54.0 °F 58% 29.92 in 10.0 mi South 3.5 mph - N/A   Scattered Clouds
8:53 PM 68.0 °F 55.0 °F 63% 29.91 in 10.0 mi SE 4.6 mph - N/A   Overcast
9:53 PM 66.9 °F 55.0 °F 66% 29.91 in 10.0 mi ESE 8.1 mph - N/A   Overcast
10:53 PM 64.0 °F 57.0 °F 78% 29.90 in 9.0 mi SSE 4.6 mph - 0.05 in Rain Light Rain
11:08 PM 64.4 °F 57.2 °F 77% 29.92 in 8.0 mi South 5.8 mph - 0.04 in Rain , Thunderstorm Light Thunderstorms and Rain
11:53 PM 64.0 °F 57.0 °F 78% 29.90 in 10.0 mi South 6.9 mph - 0.07 in Rain , Thunderstorm Light Rain